Location: Briis
(48.6240°N, 2.1211°E)
Time: 11:25:26
(UTC+00:00)

H-2A R/B - Pass Details

Date: 25 September 2020
Orbit: 577 x 655 km, 98.5° (Epoch: 25 October)

Event Time Altitude Azimuth Distance (km) Brightness Sun altitude
Rises 02:32:25 0° 131° (SE) 2,926 5.6 -30.1°
Reaches altitude 10° 02:34:51 10° 119° (ESE) 2,034 4.9 -29.8°
Maximum altitude 02:38:33 26° 63° (ENE) 1,266 4.2 -29.3°
Drops below altitude 10° 02:42:18 10° 7° (N) 2,071 5.2 -28.8°
Sets 02:44:48 0° 355° (N) 2,992 6.0 -28.5°
